Погода в Оффенбахе

Германия     50°05′42″N   8°46′55″E
В апреле 2022 года жителям России запретили посещать сайт meteo.paraplan.net по решению Генеральной прокуратуры. Аудитория сайта уменьшилась в 10 раз. Владельцы сайта не видят смысла в поддержке погодного сервера в таких условиях. Сайт будет закрыт в октябре.
темп.,
°C
ветер,
м/с
пор.,
м/с
влажн.,
%
обл.,
%
осадки,
мм/ч
давл.,
гПа
погр.,
м
6 октября, чт
чт623:00+17юз412720 0.0 1021548
02:00+16юз411750 0.0 1023428
05:00+15зюз397620 0.0 1025575
08:00+14зсз267169 0.0 1028607
11:00+16зсз235146 0.0 1031899
14:00+18зюз233810 0.0 10311277
17:00+18зюз22360 0.0 10301269
20:00+14ююв22480 0.0 103025
7 октября, пт
пт723:00+12юв12580 0.0 103032
02:00+11вюв11640 0.0 102928
05:00+9в116844 0.0 102827
08:00+9в116991 0.0 102731
11:00+14ю0152100 0.0 1025328
14:00+17юз235099 0.0 1023658
17:00+17юз2357100 0.0 1020645
20:00+15ю236898 0.0 102080
8 октября, сб
сб823:00+14юз257678 0.0 1020157
02:00+12юз24785 0.0 101997
05:00+11юз26817 0.0 1019146
08:00+10юз27740 0.0 1020216
11:00+12зюз376924 0.0 1023548
14:00+17з364211 0.0 10231960
17:00+17сз353718 0.0 10231814
20:00+13с14515 0.0 1025141
9 октября, вс
вс923:00+11в12615 0.0 102663
02:00+9всв136811 0.0 102695
05:00+8всв23725 0.0 102595
08:00+7всв24745 0.0 1024107
11:00+13вюв36555 0.0 1023554
14:00+17юв45405 0.0 10201058
17:00+18юв36461 0.0 10181047
20:00+13юв29679 0.0 1017230
10 октября, пн
пн1023:00+12ююв2476100 0.0 101791
02:00+11ююв1282100 0.0 101748
05:00+11ю2386100 0.0 101687
08:00+11ююз2687100 0.0 1017178
11:00+15юз3875100 0.2 1018469
14:00+18зюз3867100 0.3 1019730
17:00+15зюз3787100 0.6 1020406
20:00+14зюз129499 0.8 102245